Regional Weather Roundup
Issued by NWS Goodland, KS

Home | Current Version | Previous Version | Graphics & Text | Print | Product List | Glossary On
Versions: 1 2 3 4 5 6 7 8 9 10 11 12 13 14 15 16 17 18 19 20 21 22 23 24 25 26 27 28 29 30 31 32 33 34 35 36 37 38 39 40 41 42 43 44 45 46 47 48 49 50
000
ASUS43 KGLD 310408
RWRGLD

GOODLAND FORECAST AREA HOURLY WEATHER ROUNDUP
NATIONAL WEATHER SERVICE GOODLAND KS
1000 PM MDT SUN AUG 30 2015

...OFFICIAL OBSERVATIONS...

CITY           SKY/WX    TMP DP  RH WIND       PRES   REMARKS
GOODLAND KS    CLEAR     67  43  41 S12       29.98S
HILL CITY KS   PTCLDY    71  57  61 E7        29.96S
IMPERIAL NEB   CLEAR     74  38  27 S14       29.93R
MCCOOK NEB     CLEAR     70  49  47 SE10      29.94R
AKRON CO       CLEAR     75  48  38 S15       29.98R
BURLINGTON CO  CLEAR     69  43  38 S15       30.01R
LIMON CO       CLEAR     68  49  50 SE10      30.05R
$$

...UNOFFICIAL OBSERVATIONS...

CITY           SKY/WX    TMP DP  RH WIND       PRES   REMARKS
COLBY KS       CLEAR     68  50  52 SE8       29.98S
GOVE KS          N/A     65  32  29 MISG        N/A
LENORA KS        N/A     67  32  27 MISG        N/A
NORTON KS      CLEAR     68  57  68 SE9       29.95S
SHARON SPRINGS   N/A     68  50  52 SE12        N/A
TRENTON NEB      N/A     73  32  22 S14         N/A
KIT CARSON CO    N/A     74  45  35 MISG        N/A
YUMA CO          N/A     74  50  42 S6          N/A
$$


USA.gov is the U.S. government's official web portal to all federal, state and local government web resources and services.